Flag for U.S.A. Weather past 2 weeks in Daly City, California, U.S.A.

Now
56 °F

Low clouds.


Feels Like: 54 °F
Forecast: 53 / 62 °F
Wind: 8 mph from Southwest

Location: San Francisco International Airport

Current Time: May 26, 2015 at 12:52:04 AM

Latest Report: May 25, 2015 at 11:56 PM


Visibility: 10 mi

Pressure: 30.01 "Hg

Humidity: 81%

Dew point: 50 °F

Location of Daly CityLocation

Historic Weather in Daly City — Graph

°F

Daly City temperature yesterday

Maximum temperature yesterday: 62 °F (at 1:56 PM)
Minimum temperature yesterday: 53 °F (at 3:56 AM)
Average temperature yesterday: 57 °F

Past Weeks' High & Low Weather Summary

 TemperatureHumidityPressure
High66 °F (May 21, 2:56 PM)90% (May 21, 6:56 AM)30.12 "Hg (May 21, 6:56 AM)
Low51 °F (May 12, 1:56 AM)44% (May 12, 2:56 PM)29.79 "Hg (May 14, 4:56 PM)
Average57 °F72%29.99 "Hg
* Reported May 10 10:56 PM — May 25 10:56 PM, Daly City, Weather by CustomWeather, © 2015

Note: Actual official high and low records may vary slightly from our data, if they occured in-between our weather recording intervals... More about our weather records

Advertising

Daly City weather history for previous 24 hours

 ConditionsComfort  
Time TempWeatherWind HumidityBarometerVisibility
10:56 PM
Mon, May 25
56 °FLow clouds.10 mph77%30.00 "Hg10 mi
9:56 PM56 °FLow clouds.13 mph77%29.99 "Hg10 mi
8:56 PM57 °FMore clouds than sun.13 mph74%29.98 "Hg10 mi
7:56 PM57 °FMore clouds than sun.13 mph74%29.96 "Hg10 mi
6:56 PM58 °FBroken clouds.15 mph75%29.96 "Hg10 mi
5:56 PM59 °FBroken clouds.14 mph72%29.96 "Hg10 mi
4:56 PM61 °FBroken clouds.13 mph65%29.96 "Hg10 mi
3:56 PM62 °FScattered clouds.20 mph62%29.97 "Hg10 mi
2:56 PM61 °FBroken clouds.18 mph65%29.98 "Hg10 mi
1:56 PM62 °FPartly sunny.21 mph62%29.99 "Hg10 mi
12:56 PM61 °FPartly sunny.16 mph65%30.00 "Hg10 mi
11:56 AM59 °FMore clouds than sun.15 mph69%30.00 "Hg10 mi
10:56 AM56 °FMore clouds than sun.9 mph77%29.99 "Hg10 mi
9:56 AM56 °FLow clouds.10 mph77%29.99 "Hg10 mi
8:56 AM54 °FLow clouds.8 mph83%29.98 "Hg10 mi
7:56 AM53 °FLow clouds.7 mph86%29.98 "Hg10 mi
6:56 AM53 °FLow clouds.9 mph83%29.96 "Hg10 mi
5:56 AM53 °FMostly cloudy.8 mph86%29.96 "Hg9 mi
4:56 AM53 °FMostly cloudy.8 mph86%29.96 "Hg9 mi
3:56 AM53 °FMostly cloudy.9 mph89%29.96 "Hg7 mi
2:56 AM55 °FMostly cloudy.8 mph80%29.96 "Hg10 mi
1:56 AM55 °FMostly cloudy.6 mph83%29.97 "Hg10 mi
12:56 AM56 °FLow clouds.6 mph81%29.98 "Hg10 mi
Weather by CustomWeather, © 2015

See weather overviewHow to use our weather pages